Regional Weather Roundup
Issued by NWS Memphis, TN

Home | Current Version | Previous Version | Text Only | Print | Product List | Glossary On
Versions: 1 2 3 4 5 6 7 8 9 10 11 12 13 14 15 16 17 18 19 20 21 22 23 24 25 26 27 28 29 30 31 32 33 34 35 36 37 38 39 40 41 42 43 44 45 46 47 48 49 50
000
ASUS44 KMEG 161510
RWRMEG
MEMPHIS CWA HOURLY WEATHER ROUNDUP
NATIONAL WEATHER SERVICE MEMPHIS TN
1000 AM CDT TUE SEP 16 2014

...WEST TENNESSEE...

CITY           SKY/WX    TMP DP  RH WIND       PRES   REMARKS
MEMPHIS INTL   CLOUDY    71  65  81 NE9       30.15R
NWS MEMPHIS      N/A     69 N/A N/A MISG        N/A
JACKSON        CLOUDY    69  65  86 NE8       30.14S
LEXINGTON      CLOUDY    68  64  88 NE6       30.13S
SAVANNAH       SUNNY     75  68  78 NE5       30.13S
DYERSBURG      PTSUNNY   68  55  64 NE10      30.16S
UNION CITY     CLOUDY    63  57  82 N12       30.16S
PARIS          CLOUDY    61  57  88 N8        30.17R
HUNTINGDON     CLOUDY    64  60  87 N6        30.16R


...EASTERN ARKANSAS...

CITY           SKY/WX    TMP DP  RH WIND       PRES   REMARKS
JONESBORO      MOSUNNY   71  62  73 NE10      30.15S
WEST MEMPHIS   CLOUDY    69  69 100 NE7       30.13R FOG
BATESVILLE     CLOUDY    68  64  88 NE6       30.16R
NEWPORT        CLOUDY    71  64  78 NE13      30.16S
WALNUT RIDGE   MOSUNNY   68  57  68 NE16      30.16S
BLYTHEVILLE    PTSUNNY   70  62  76 NE12G18   30.15S
NW BLYTHEVILLE PTSUNNY   68  61  77 NE12      30.15
SEARCY         CLOUDY    72  68  87 NE9       30.16R
STUTTGART      CLOUDY    75  68  78 N8        30.13F
PINE BLUFF     MOSUNNY   77  69  76 NE9       30.13S
MONTICELLO     PTSUNNY   77  67  71 N5        30.13R


...NORTH MISSISSIPPI...

CITY           SKY/WX    TMP DP  RH WIND       PRES   REMARKS
TUPELO         MOSUNNY   79  65  62 N3        30.12R
OXFORD         MOSUNNY   75  66  73 NE5       30.14S
OLIVE BRANCH   CLOUDY    70  70 100 N8        30.15R FOG
CLARKSDALE     MOSUNNY   77  70  78 CALM      30.13R
CORINTH        MOSUNNY   77  66  69 VRB3      30.12S
GRENADA        CLOUDY    77  64  65 CALM      30.12S
GREENWOOD      CLOUDY    76  68  76 NE5       30.12S
COLUMBUS       PTSUNNY   76  71  84 NE3       30.11F
STARKVILLE     FAIR      77  66  69 N3        30.12S
GOLDEN TRIANGL PTSUNNY   75  70  83 N5        30.12S


...SOUTHEAST MISSOURI...

CITY           SKY/WX    TMP DP  RH WIND       PRES   REMARKS
WEST PLAINS    CLOUDY    64  56  75 E7        30.21S
POPLAR BLUFF   CLOUDY    63  54  72 NE8       30.18R
CAPE GIRARDEAU CLOUDY    63  55  75 N12       30.20R


...NORTHWEST ALABAMA...

CITY           SKY/WX    TMP DP  RH WIND       PRES   REMARKS
MUSCLE SHOALS  MOSUNNY   79  66  64 CALM      30.13R


...MIDDLE TENNESSEE...

CITY           SKY/WX    TMP DP  RH WIND       PRES   REMARKS
NASHVILLE      CLOUDY    71  64  78 N8        30.14R
CLARKSVILLE    CLOUDY    63  59  87 N9        30.17R
DICKSON          N/A     66  63  88 N8        30.15R
COLUMBIA       PTSUNNY   72  72 100 NW3       30.12S
LEWISBURG      PTSUNNY   73  67  81 CALM      30.12S


...WESTERN KENTUCKY...

CITY           SKY/WX    TMP DP  RH WIND       PRES   REMARKS
PADUCAH        CLOUDY    65  55  70 N12       30.18S
FORT CAMPBELL  CLOUDY    62  62  99 N8        30.17R


...CENTRAL ARKANSAS...

CITY           SKY/WX    TMP DP  RH WIND       PRES   REMARKS
LITTLE ROCK    PTSUNNY   79  66  65 E7        30.14S


SKY/WX REPORTED AS FAIR MEANS FEW OR NO CLOUDS BELOW
12 THOUSAND FEET.



USA.gov is the U.S. government's official web portal to all federal, state and local government web resources and services.